Location: Wiesbaden
(50.0830°N, 8.2500°E)
Time: 12:24:55
(UTC+02:00)

ISS - Visible Passes

Search period start: 26 September 2018 00:00
Search period end: 06 October 2018 00:00
Orbit: 403 x 408 km, 51.6° (Epoch: 26 September)

Date Brightness Start Highest point End Pass type
(mag) Time Alt. Az. Time Alt. Az. Time Alt. Az.
26 Sep -3.3 20:10:48 10° SW 20:13:56 43° SSE 20:16:23 15° E visible
26 Sep -2.1 21:47:05 10° W 21:49:04 33° W 21:49:04 33° W visible
27 Sep -3.9 20:55:09 10° WSW 20:58:28 85° N 20:59:16 48° ENE visible
27 Sep -0.4 22:31:49 10° WNW 22:31:56 11° WNW 22:31:56 11° WNW visible
28 Sep -3.8 20:03:14 10° WSW 20:06:32 73° SSE 20:09:23 13° ENE visible
28 Sep -2.3 21:39:50 10° W 21:42:03 37° WNW 21:42:03 37° WNW visible
29 Sep -3.6 20:47:51 10° W 20:51:09 68° N 20:52:07 41° ENE visible
29 Sep -0.4 22:24:29 10° WNW 22:24:47 12° WNW 22:24:47 12° WNW visible
30 Sep -3.7 19:55:51 10° W 19:59:10 79° N 20:02:08 12° ENE visible
30 Sep -2.4 21:32:31 10° WNW 21:34:48 40° WNW 21:34:48 40° WNW visible
01 Oct -3.6 20:40:31 10° W 20:43:49 64° N 20:44:47 40° ENE visible
01 Oct -0.5 22:17:06 10° WNW 22:17:27 13° WNW 22:17:27 13° WNW visible
02 Oct -3.6 19:48:30 10° W 19:51:47 65° N 19:54:46 12° ENE visible
02 Oct -2.6 21:25:07 10° WNW 21:27:26 42° WNW 21:27:26 42° WNW visible
03 Oct -3.8 20:33:07 10° WNW 20:36:26 73° N 20:37:24 42° E visible
03 Oct -0.5 22:09:42 10° W 22:10:04 12° W 22:10:04 12° W visible
04 Oct -3.6 19:41:05 10° W 19:44:23 65° N 19:47:23 12° E visible
04 Oct -2.6 21:17:39 10° WNW 21:20:03 41° W 21:20:03 41° W visible
05 Oct -3.9 20:25:38 10° WNW 20:28:56 83° SSW 20:30:03 39° ESE visible
05 Oct -0.5 22:02:29 10° W 22:02:43 11° W 22:02:43 11° W visible
